Regional Weather Roundup
Issued by NWS Charleston, SC

Current Version | Previous Version | Text Only | Print | Product List | Glossary Off
Versions: 1 2 3 4 5 6 7 8 9 10 11 12 13 14 15 16 17 18 19 20 21 22 23 24 25 26 27 28 29 30 31 32 33 34 35 36 37 38 39 40 41 42 43 44 45 46 47 48 49 50

000
ASUS42 KCHS 260012
RWRCHS

REGIONAL WEATHER ROUNDUP
NATIONAL WEATHER SERVICE CHARLESTON SC
800 PM EDT MON MAY 25 2015

NOTE: "FAIR" INDICATES FEW OR NO CLOUDS BELOW 12,000 FEET WITH NO
SIGNIFICANT WEATHER AND/OR OBSTRUCTIONS TO VISIBILITY.

NOT ALL STATIONS ARE QUALITY CONTROLLED BY THE NATIONAL
WEATHER SERVICE. USE DATA WITH CAUTION...ESPECIALLY
DEWPOINT OBSERVATIONS.

SCZ027-030-031-034>040-042>050-260100-
...SOUTHEAST SOUTH CAROLINA...

CITY           SKY/WX    TMP DP  RH WIND       PRES   REMARKS
N CHARLESTON   MOCLDY    77  66  68 SE8       30.26S
6HR MIN TEMP:  77; 6HR MAX TEMP:  82;

WATERFRONT PAR   N/A     77  70  79 E9        30.23S
MOUNT PLEASANT LGT RAIN  75  68  78 E6        30.26F
JOHNS ISLAND   CLEAR     75  70  83 E8        30.26S
PINOPOLIS        N/A     84  66  54 VRB2      30.16S
MONCKS CORNER  FAIR      77  66  69 SE5       30.26S
SUMMERVILLE    FAIR      77  68  73 SE3       30.26S
BEAUFORT MCAS  PTCLDY    77  70  79 E9        30.24S
6HR MIN TEMP:  77; 6HR MAX TEMP:  82;

BEAUFORT ARPT  FAIR      77  72  83 E9        30.24S
HILTON HEAD IS NOT AVBL
WALTERBORO     PTCLDY    75  66  73 SE9       30.26R
ALLENDALE      FAIR      79  68  69 SE10      30.22S

...SOUTHERN MIDLANDS AND PEE DEE...

CITY           SKY/WX    TMP DP  RH WIND       PRES   REMARKS
GEORGETOWN     NOT AVBL
KINGSTREE      NOT AVBL
ORANGEBURG     CLEAR     78  66  66 SE8       30.24S
6HR MIN TEMP:  78; 6HR MAX TEMP:  84;

BARNWELL       FAIR      81  66  61 E8        30.23S
AIKEN          MOCLDY    79  61  53 SE9       30.25S
MANNING        FAIR      75  63  64 CALM      30.26S
COLUMBIA       PTCLDY    81  63  54 SE10      30.22S
6HR MIN TEMP:  81; 6HR MAX TEMP:  85;

SUMTER         NOT AVBL
FLORENCE       CLEAR     78  64  61 SE10      30.25S
6HR MIN TEMP:  78; 6HR MAX TEMP:  86;

MYRTLE BEACH   PTCLDY    75  64  69 SE8         N/A
N MYRTLE BEACH MOCLDY    76  65  68 SE8       30.28S
6HR MIN TEMP:  76; 6HR MAX TEMP:  79;


$$

GAZ063-065-086>088-099>101-113>116-118-119-134>141-150-260100-
...SOUTHEAST GEORGIA...

CITY           SKY/WX    TMP DP  RH WIND       PRES   REMARKS
SAVANNAH ARPT  MOCLDY    77  68  73 E13       30.23F
6HR MIN TEMP:  77; 6HR MAX TEMP:  85;

HUNTER AAF     PTCLDY    78  70  77 E8        30.21S
6HR MIN TEMP:  78; 6HR MAX TEMP:  84; 6HR PCP: TRACE;

FORT STEWART   NOT AVBL
STATESBORO     MOCLDY    77  72  83 SE7       30.22S
SYLVANIA       MOCLDY    79  70  74 SE3       30.23S
CLAXTON        MOCLDY    77  70  78 SE6       30.22S

...CSRA...CENTRAL AND FAR SOUTHEAST GEORGIA...

CITY           SKY/WX    TMP DP  RH WIND       PRES   REMARKS
THOMSON        MOCLDY    80  72  75 SE3       30.25F
AUGUSTA-BUSH   MOCLDY    80  67  64 SE8       30.20S
6HR MIN TEMP:  80; 6HR MAX TEMP:  88;

AUGUSTA-DANIEL MOCLDY    81  67  62 S12       30.21F
SWAINSBORO     FAIR      81  72  74 SE13      30.21S
VIDALIA        MOCLDY    79  70  73 SE6       30.21S
EASTMAN        FAIR      73  73 100 CALM      30.21F
HAZLEHURST     FAIR      81  72  73 E5        30.18F
ALMA           CLOUDY    80  69  69 SE9       30.19S
6HR MIN TEMP:  77; 6HR MAX TEMP:  87; 6HR PCP:  0.12;

WAYCROSS       CLOUDY    80  72  75 SE12G17   30.20R
JESUP          FAIR      81  72  74 SE5       30.21S
BAXLEY         FAIR      81  70  69 SE5       30.20R
BRUNSWICK      MOCLDY    79  70  73 E7        30.22S
SAINT SIMONS   NOT AVBL

$$

SCZ027-028-034-036>038-045-046-048>050-GAZ119-141-260100-
...LAKE AND SUPPLEMENTAL COASTAL OBSERVATIONS...

STATION/POSITION TIME  TEMP    WIND        PRES    WAVE   SWELL
                       AIR SEA DIR/SP/G            HT/PER HT/PER/DIR
                 (UTC) (F)     (DEG/KT/KT) (MB)    (FT/S) (FT/S/D)
UPR LAKE MARION  NOT AVBL
WINYAH BAY       2245   76     100/  7     1024.0
LAKE MURRAY      2300   81     100/  8/ 10 1022.7S
ACE BASIN NERRS  NOT AVBL
FORT PULASKI     2300   77 79   70/ 12/ 14 1024.4F
SAPELO ISLAND    2300   78      90/  7     1023.0S

$$

ANZ835-935-AMZ111-154-330-350-352-354-370-450-454-472-260100-
...C-MAN AND BUOY OBSERVATIONS...

STATION/POSITION TIME  TEMP    WIND        PRES    WAVE   SWELL
                       AIR SEA DIR/SP/G            HT/PER HT/PER/DIR
                 (UTC) (F)     (DEG/KT/KT) (MB)    (FT/S) (FT/S/D)
BUOY 41004       2350   76 76   90/ 12/ 14 1024.3R   4/ 7   3/ 7
BUOY 41008       2350   76 76  100/ 10/ 12 1023.6S   3/ 8   3/100/ 8
FOLLY BEACH CMAN 2300   76     100/ 11/ 12 1024.8F
CAPERS NEARSHORE 2308   76     110/ 10/ 14 1025.0R
FRIPP NEARSHORE  2300   77      90/ 10/ 14 1023.4F


STATION/POSITION TIME  TEMP    WIND        PRES    WAVE   SWELL
                       AIR SEA DIR/SP/G            HT/PER HT/PER/DIR
                 (UTC) (F)     (DEG/KT/KT) (MB)    (FT/S) (FT/S/D)
5E ST. MARYS GA  2321      79                N/A     3/ 8
FRYING PAN BUOY  2350   76 74  140/ 10/ 12 1026.4R   3/ 7   2/120/ 7
BUOY 41025       2350   75 77  160/ 14/ 17 1026.8R   2/ 7   2/ 50/ 7
CAPE LOOKOUT NC  2300   74     160/  7/  9 1026.2R
BUOY 41002       2350   74 75  120/ 12/ 14 1026.2R   3/ 6   2/110/ 6
BUOY 41010       2320   79 81  100/ 12/ 14 1023.0R
ST AUGUSTINE FL  0000   78 79  110/ 11/ 12 1023.0R


$$



USA.gov is the U.S. government's official web portal to all federal, state and local government web resources and services.